RH
16 15 17 20 22 35 50 60 60 56 47 43 42 47 55 66 71 75 76 78 84 90 93 93 90 90 87 89 90 86 92 93 94 97 94 94 98 98
17 18 18 22 25 45 63 66 66 63 62 50 50 58 66 72 73 74 73 83 86 88 89 88 89 91 93 95 94 94 90 93 94 95 92 95 94 94
18 18 18 23 36 53 60 63 66 65 65 62 67 71 77 74 69 77 82 83 76 71 78 88 93 95 96 95 97 96 96 96 98 97 96 93 97 95
18 18 24 38 30 50 63 66 69 76 78 81 80 84 76 76 84 88 79 67 70 75 83 90 94 95 97 99 99 98 96 98 99 98 97 98 97 94
20 21 22 30 51 64 72 79 82 81 88 93 89 79 81 88 87 80 77 74 74 78 82 87 92 96 100 100 98 98 98 95 97 97 98 95 92 94
20 20 31 48 71 76 82 81 80 85 80 83 88 85 98 89 80 75 72 76 84 84 86 94 92 93 95 94 95 97 99 100 100 100 98 97 96 94
29 39 59 62 48 84 95 91 89 89 90 87 98 99 88 80 70 76 87 89 90 93 87 84 84 84 86 90 94 97 98 100 100 100 99 100 99 98
50 60 70 80 86 95 95 95 97 100 96 100 100 93 76 72 82 89 95 99 99 89 89 86 93 90 87 82 91 97 100 100 100 100 100 99 98 99
62 71 76 80 91 90 92 94 96 96 100 94 93 77 80 85 90 93 98 95 100 91 99 93 90 93 82 78 92 99 95 96 100 100 100 100 100 100
77 82 87 88 87 90 91 94 95 92 84 86 85 90 95 94 98 97 96 96 94 93 100 100 86 93 90 80 61 57 71 100 100 100 100 100 100 100
82 83 88 87 90 93 96 94 88 82 81 86 98 100 100 100 100 97 94 100 99 99 76 99 97 99 87 66 67 77 88 97 88 94 100 100 96 95
81 82 82 90 93 95 98 92 91 81 87 93 96 90 94 98 100 100 96 98 100 100 87 98 98 100 98 86 78 71 72 73 87 98 100 99 98 98
83 79 83 91 94 95 96 95 93 99 99 99 94 97 100 100 100 100 100 100 100 99 76 100 99 93 100 99 73 67 82 87 96 94 89 94 99 98
87 90 92 96 95 97 93 92 100 100 100 99 100 100 100 90 87 86 83 84 89 94 79 90 96 99 97 94 99 79 77 83 96 97 97 96 96 98
92 95 97 96 78 55 72 87 85 100 100 100 100 100 95 92 86 84 80 84 84 78 80 86 98 96 100 100 100 99 100 90 93 100 98 98 99 98
96 96 96 81 83 77 84 93 100 100 100 100 100 100 100 100 91 93 96 91 92 78 76 84 96 98 96 97 100 95 90 100 99 96 98 97 99 99
98 94 87 84 92 95 99 100 100 100 100 100 100 98 96 97 88 90 96 100 98 90 82 79 85 96 96 93 92 84 99 100 100 97 96 99 98 99
95 90 90 98 99 100 100 98 94 95 98 98 95 97 97 95 96 93 93 96 99 92 93 88 93 95 87 79 86 95 99 100 95 96 98 98 98 100
86 99 100 100 100 100 99 96 93 93 97 96 96 94 96 96 94 94 96 98 95 91 92 100 99 99 99 100 80 82 98 96 100 94 100 98 99 100
100 100 100 98 99 98 96 95 92 92 95 95 95 97 96 97 96 96 97 98 98 97 99 93 100 100 100 100 100 80 92 98 100 98 98 95 98 98
92 89 88 91 94 96 96 96 96 96 96 96 95 96 96 97 95 95 95 94 100 100 100 96 89 91 90 80 100 95 82 90 100 98 99 100 100 96
75 72 84 93 98 99 98 98 97 96 96 96 96 96 96 97 96 96 96 99 97 100 100 100 89 88 82 88 91 94 98 85 85 97 98 98 99 98
69 81 93 96 99 98 97 98 98 96 96 96 96 96 96 96 97 97 98 100 100 100 100 100 99 85 83 89 93 97 98 98 100 99 97 98 98 98
Wind_Speed
16 16 17 17 18 18 18 18 22 33 33 24 18 23 27 28 29 30 31 31 33 35 35 36 36 38 38 39 39 40 40 41 41 42 43 43 43 44
17 17 18 19 20 20 19 19 20 26 38 30 30 28 27 29 29 30 31 33 35 35 36 37 39 37 37 38 39 39 39 40 40 41 41 41 43 44
18 19 21 20 20 19 19 20 22 23 34 40 32 30 31 30 31 29 29 33 39 37 36 36 36 36 36 37 39 40 40 40 41 42 43 43 43 43
19 20 20 20 23 21 19 21 22 24 30 41 39 36 34 33 31 30 33 38 35 34 34 35 37 37 37 36 37 38 39 40 41 41 42 42 42 44
20 21 22 23 21 19 20 22 23 26 30 35 42 40 38 36 32 38 32 32 31 32 35 35 35 37 37 37 38 39 40 40 41 42 42 43 44 44
21 23 23 22 19 20 22 23 25 28 31 34 37 41 36 35 40 36 34 35 36 35 39 35 34 35 36 37 39 40 39 39 39 39 40 41 42 43
21 22 21 22 25 22 22 23 27 30 32 35 37 32 40 40 35 36 37 39 41 35 38 39 35 43 43 38 38 36 35 35 37 38 39 39 40 41
21 21 20 21 20 22 24 25 26 28 34 36 37 38 35 35 35 37 42 38 46 33 29 49 42 44 42 42 37 36 37 38 38 39 40 40 41 42
20 20 21 20 21 23 24 26 27 29 28 34 34 32 34 34 40 41 41 44 40 43 37 48 41 43 43 42 39 37 34 33 35 36 38 39 40 42
19 20 21 21 22 23 28 31 32 31 28 28 29 32 35 35 35 38 38 41 41 39 30 39 43 40 42 45 36 25 33 32 32 34 35 37 38 39
19 20 21 23 22 27 28 33 31 30 27 26 28 30 31 33 28 29 32 33 41 39 42 29 31 42 46 43 32 31 32 35 31 32 35 37 37 39
20 21 22 22 26 26 30 31 33 29 29 33 29 27 24 24 23 22 27 30 35 41 30 31 40 31 27 31 36 48 43 36 35 37 35 35 35 37
22 23 22 25 27 30 29 28 26 28 30 29 26 24 22 22 22 23 24 27 32 37 37 32 37 39 27 39 50 46 43 43 43 40 32 32 33 31
23 23 26 28 30 30 27 24 24 25 22 22 23 25 26 29 30 29 28 29 31 34 33 27 33 34 37 44 46 46 46 41 42 38 38 46 41 36
24 27 29 29 29 27 23 22 21 19 20 22 26 28 29 31 31 32 31 31 32 30 28 27 26 29 31 39 45 48 42 44 35 40 47 43 36 29
26 29 27 26 24 22 21 19 18 19 21 25 27 30 32 32 32 32 32 31 33 34 27 27 25 26 31 33 35 40 39 38 44 46 43 33 26 23
28 23 20 20 20 19 19 19 20 21 24 25 30 32 32 31 31 30 30 30 32 34 35 31 25 26 28 29 35 34 36 36 39 43 41 37 25 26
22 18 18 18 19 20 21 24 26 28 28 31 31 30 31 31 32 31 29 30 31 33 34 33 32 32 34 32 17 29 32 35 39 40 41 36 28 27
17 16 18 18 19 20 23 27 30 29 31 31 30 29 30 30 31 32 31 30 32 31 33 31 29 28 32 33 40 29 34 35 35 37 38 35 25 20
15 17 18 19 20 23 27 29 29 31 31 30 29 29 29 31 32 31 30 30 31 31 33 32 26 26 29 33 36 36 30 29 29 32 36 34 24 18
18 19 19 21 23 26 28 29 28 31 30 29 29 29 29 31 31 29 28 28 27 29 31 32 28 25 24 26 25 32 33 25 20 23 28 30 29 22
20 21 21 22 25 28 29 29 30 31 29 28 29 28 28 31 31 29 28 29 29 29 28 28 27 25 23 24 29 30 31 30 21 16 16 15 24 17
21 22 22 24 27 29 28 28 30 30 28 28 28 31 29 30 30 27 27 28 27 27 25 26 26 24 23 23 24 26 27 28 31 29 20 14 14 14
Wind_Direction
314 312 312 310 306 302 298 295 297 302 303 304 299 298 299 300 301 301 301 300 297 297 297 295 293 294 291 288 286 283 281 280 277 276 276 272 269 267
312 311 311 308 305 304 299 295 292 292 292 297 300 300 301 300 302 302 300 297 297 299 297 294 292 291 289 288 286 286 282 281 278 276 274 272 268 267
313 311 310 309 307 304 299 296 293 292 291 297 299 302 303 305 304 301 298 299 301 299 294 295 294 293 291 289 287 285 283 280 278 276 275 272 270 266
311 310 310 309 308 305 302 299 296 295 293 296 301 305 306 309 302 301 305 298 297 299 298 298 298 294 292 290 288 286 284 281 277 274 273 272 269 266
310 310 310 308 307 304 302 300 299 296 293 295 300 303 307 306 308 303 307 304 303 300 298 297 297 294 293 292 289 286 283 282 279 276 273 270 268 266
309 309 307 305 302 303 301 299 298 297 297 295 296 302 304 307 308 308 308 306 305 305 302 300 299 297 295 293 290 287 284 282 280 277 273 269 267 264
307 306 304 300 302 301 298 300 299 297 295 298 298 301 306 309 309 307 306 307 307 307 305 306 305 303 303 299 293 290 287 285 281 278 274 270 266 264
306 305 304 302 302 301 299 298 296 297 299 300 302 302 302 303 306 306 306 307 308 313 305 303 307 305 305 303 297 292 291 286 282 279 275 271 267 264
306 305 305 303 305 305 303 303 299 298 295 299 298 297 299 301 303 308 302 303 299 302 306 301 308 301 306 309 304 299 294 288 285 281 277 273 269 265
304 303 304 306 307 307 308 304 306 307 299 295 294 295 296 301 300 298 297 299 303 304 305 296 311 305 311 309 318 316 321 299 290 284 280 275 271 267
306 308 306 306 305 310 309 309 308 303 302 298 299 299 296 297 296 298 300 302 302 305 318 306 308 307 315 321 325 321 306 302 304 304 288 280 277 268
313 311 308 307 310 312 312 309 306 306 305 313 308 300 301 302 302 298 296 295 301 308 313 309 312 318 315 311 312 323 326 325 320 311 295 288 280 272
313 312 311 310 313 309 309 305 301 306 306 305 303 306 307 307 305 303 305 302 301 299 316 312 305 311 298 303 320 326 324 324 319 319 314 307 296 284
312 310 309 313 308 311 311 307 308 306 305 304 305 308 311 318 320 318 316 314 312 309 318 318 305 307 308 305 302 322 325 325 323 315 314 315 308 294
312 313 310 309 315 318 315 315 316 312 307 305 307 313 318 321 322 324 322 321 317 319 324 325 316 313 309 299 295 307 312 325 328 321 320 322 319 311
314 313 310 315 318 319 321 320 315 312 310 308 308 316 322 323 326 329 324 328 324 327 332 335 327 323 317 313 305 313 324 308 326 331 333 332 331 314
311 313 313 316 317 318 318 320 321 320 319 321 321 324 327 329 330 333 330 326 323 329 333 340 336 332 326 326 318 320 316 321 331 338 340 336 333 333
315 312 313 316 317 320 322 327 332 333 331 329 330 330 329 331 332 332 331 330 327 330 332 341 339 336 337 334 321 315 327 327 335 342 344 340 339 339
320 315 317 317 317 321 327 331 334 336 335 334 333 333 332 330 333 333 334 332 329 331 333 335 336 335 325 318 332 343 331 331 335 341 349 349 344 336
323 319 318 320 324 328 333 334 333 335 335 335 337 336 336 335 334 334 334 331 330 329 327 336 335 331 320 312 315 336 352 335 337 341 349 348 359 6
326 324 325 328 331 334 333 332 331 334 337 336 339 340 340 339 338 336 334 333 327 331 324 331 337 333 324 331 324 327 348 352 340 341 352 355 352 358
329 328 332 334 335 334 333 332 332 336 337 336 338 340 339 339 338 336 335 333 333 331 327 327 338 338 337 333 329 337 344 349 354 356 4 12 6 350
334 333 336 337 336 334 334 333 334 336 336 334 336 341 340 335 337 335 332 334 330 324 330 331 337 343 344 338 338 344 350 354 359 360 9 23 35 35